FW7611 Weather Reports


time (UTC)temp
F
wind
direction
speed
knots
gust
knots
rain 1hr
in
rain 24hr
in
rain mn
in
humidity
%
barometer
mb
20260503054543 42 0 0.0 1.7 0.00 0.00 0.00 75 1017.7
20260503053036 42 0 0.0 1.7 0.00 0.00 0.00 74 1017.5
20260503051536 42 22 0.0 1.7 0.00 0.00 0.00 74 1017.5
20260503050042 42 0 0.0 0.0 0.00 0.00 0.00 73 1017.6
20260503044543 43 0 0.0 0.0 0.00 0.00 0.00 74 1017.4
20260503043043 44 0 0.0 0.0 0.00 0.00 0.00 67 1017.2
20260503041540 45 0 0.0 0.0 0.00 0.00 0.00 64 1017.0
20260503040038 45 0 0.0 0.0 0.00 0.00 0.00 65 1016.8
20260503034534 45 0 0.0 0.0 0.00 0.00 0.00 68 1016.8
20260503033048 45 0 0.0 0.0 0.00 0.00 0.00 68 1016.8
20260503031540 45 0 0.0 0.0 0.00 0.00 0.00 68 1016.7
20260503030039 45 0 0.0 0.0 0.00 0.00 0.00 66 1016.6
20260503024537 47 0 0.0 0.0 0.00 0.00 0.00 61 1016.5
20260503023033 48 0 0.0 0.0 0.00 0.00 0.00 59 1016.5
20260503021533 49 0 0.0 0.0 0.00 0.00 0.00 54 1016.3
20260503020040 50 0 0.0 1.7 0.00 0.00 0.00 53 1016.2
20260503014542 50 0 0.0 0.0 0.00 0.00 0.00 53 1016.2
20260503013047 51 0 0.0 1.7 0.00 0.00 0.00 52 1015.9
20260503011539 52 15 0.0 1.7 0.00 0.00 0.00 54 1015.8
20260503010047 53 0 0.0 0.9 0.00 0.00 0.00 53 1015.3
20260503004533 54 0 0.0 1.7 0.00 0.00 0.00 53 1015.0
20260503003041 54 0 0.0 0.0 0.00 0.00 0.00 60 1014.8
20260503001538 55 0 0.0 1.7 0.00 0.00 0.00 60 1014.7
20260503000039 55 0 0.0 1.7 0.00 0.00 0.00 63 1014.5
20260502234539 55 0 0.0 0.0 0.00 0.00 0.00 65 1014.3
20260502233033 55 0 0.0 0.0 0.00 0.00 0.00 62 1014.1
20260502231540 56 0 0.0 0.0 0.00 0.00 0.00 62 1013.7
20260502230040 57 0 0.0 1.7 0.00 0.00 0.00 57 1013.7
20260502224541 58 0 0.0 1.7 0.00 0.00 0.00 52 1013.5
20260502223038 58 0 0.0 1.7 0.00 0.00 0.00 50 1013.5
20260502221536 59 0 0.0 1.7 0.00 0.00 0.00 50 1013.2
20260502220035 58 165 0.0 2.6 0.00 0.00 0.00 49 1012.9
20260502214551 59 188 0.9 2.6 0.00 0.00 0.00 46 1012.7
20260502213041 59 219 0.9 6.1 0.00 0.00 0.00 46 1012.4
20260502211539 59 168 2.6 7.8 0.00 0.00 0.00 44 1012.3
20260502210047 59 186 2.6 7.0 0.00 0.00 0.00 45 1012.2
20260502204536 59 36 0.9 6.1 0.00 0.00 0.00 44 1012.2
20260502203055 59 246 0.9 7.8 0.00 0.00 0.00 45 1012.3
20260502201547 59 0 0.0 2.6 0.00 0.00 0.00 46 1012.8
20260502200042 58 52 0.0 2.6 0.00 0.00 0.00 46 1012.9
20260502194540 58 129 0.9 2.6 0.00 0.00 0.00 45 1013.3
20260502193050 58 0 0.0 2.6 0.00 0.00 0.00 46 1013.7
20260502191536 58 198 1.7 7.0 0.00 0.00 0.00 46 1013.8
20260502190044 57 71 0.0 5.2 0.00 0.00 0.00 46 1013.9
20260502184541 56 332 0.9 4.3 0.00 0.00 0.00 46 1014.0
20260502183041 56 162 0.9 1.7 0.00 0.00 0.00 48 1014.3
20260502181539 55 55 0.0 1.7 0.00 0.00 0.00 49 1014.4
20260502163038 52 34 0.9 4.3 0.00 0.00 0.00 51 1015.9
20260502161536 52 19 0.9 4.3 0.00 0.00 0.00 53 1016.0
20260502151541 53 37 0.0 1.7 0.00 0.00 0.00 58 1016.2
20260502123041 53 0 0.0 0.0 0.00 0.00 0.00 73 1014.9
20260502121537 52 0 0.0 0.0 0.00 0.00 0.00 74 1014.8
20260502114601 52 0 0.0 1.7 0.00 0.00 0.00 73 1014.9
20260502113043 52 0 0.0 0.0 0.00 0.00 0.00 74 1014.7
20260502111542 52 0 0.0 0.0 0.00 0.00 0.00 75 1014.6
20260502110040 51 0 0.0 0.0 0.00 0.00 0.00 76 1014.6
20260502104537 52 0 0.0 0.0 0.00 0.00 0.00 76 1014.6
20260502103044 51 0 0.0 0.0 0.00 0.00 0.00 78 1014.7
20260502101559 51 0 0.0 0.0 0.00 0.00 0.00 81 1014.6
20260502070046 51 0 0.0 0.0 0.00 0.00 0.00 87 1013.6
20260502064611 51 0 0.0 0.0 0.00 0.00 0.00 86 1013.7